Time,TemperatureF,DewpointF,PressureIn,WindDirection,WindDirectionDegrees,WindSpeedMPH,WindSpeedGustMPH,Humidity,HourlyPrecipIn,Conditions,Clouds,dailyrainin,SoftwareType,DateUTC
2013-06-23 17:04:00,86.0,68.5,29.84,South,180,0.0,0.0,56,0.00,,,0.01,VWS V14.01,2013-06-23 21:04:00,
2013-06-23 17:09:00,86.0,67.4,29.84,SW,225,0.0,0.0,54,0.02,,,0.01,VWS V14.01,2013-06-23 21:09:00,
2013-06-23 17:14:00,86.0,67.4,29.84,SW,225,0.0,2.0,54,0.02,,,0.01,VWS V14.01,2013-06-23 21:14:00,
2013-06-23 17:19:00,85.0,67.6,29.83,SSW,202,0.0,0.0,56,0.02,,,0.01,VWS V14.01,2013-06-23 21:19:00,
2013-06-23 17:24:00,85.0,67.6,29.83,SW,225,0.0,0.0,56,0.02,,,0.01,VWS V14.01,2013-06-23 21:24:00,
2013-06-23 17:29:00,85.0,67.6,29.84,South,180,0.0,3.0,56,0.02,,,0.01,VWS V14.01,2013-06-23 21:29:00,
2013-06-23 17:34:00,85.0,67.6,29.84,SSW,202,0.0,0.0,56,0.02,,,0.01,VWS V14.01,2013-06-23 21:34:00,
2013-06-23 17:39:00,85.0,67.0,29.83,South,180,0.0,0.0,55,0.02,,,0.01,VWS V14.01,2013-06-23 21:39:00,
2013-06-23 17:44:00,85.0,67.0,29.83,SE,135,0.0,3.0,55,0.02,,,0.01,VWS V14.01,2013-06-23 21:44:00,
2013-06-23 17:49:00,85.0,67.6,29.83,SSW,202,0.0,0.0,56,0.02,,,0.01,VWS V14.01,2013-06-23 21:49:00,
2013-06-23 17:54:00,85.0,68.1,29.83,South,180,0.0,0.0,57,0.02,,,0.01,VWS V14.01,2013-06-23 21:54:00,
2013-06-23 17:59:00,85.0,67.6,29.83,South,180,0.0,0.0,56,0.02,,,0.01,VWS V14.01,2013-06-23 21:59:00,
2013-06-23 18:04:00,84.0,66.6,29.83,SW,225,0.0,0.0,56,0.02,,,0.01,VWS V14.01,2013-06-23 22:04:00,
2013-06-23 18:09:00,84.0,67.1,29.84,SSW,202,0.0,0.0,57,0.00,,,0.01,VWS V14.01,2013-06-23 22:09:00,
2013-06-23 18:14:00,84.0,68.1,29.84,SSW,202,0.0,0.0,59,0.00,,,0.01,VWS V14.01,2013-06-23 22:14:00,
2013-06-23 18:19:00,84.0,67.1,29.84,North,360,0.0,1.0,57,0.00,,,0.01,VWS V14.01,2013-06-23 22:19:00,
2013-06-23 18:24:00,84.0,67.7,29.84,South,180,0.0,0.0,58,0.00,,,0.01,VWS V14.01,2013-06-23 22:24:00,
2013-06-23 18:29:00,84.0,68.1,29.85,SE,135,2.0,4.0,59,0.00,,,0.01,VWS V14.01,2013-06-23 22:29:00,
2013-06-23 18:34:00,84.0,68.6,29.85,East,90,0.0,0.0,60,0.00,,,0.01,VWS V14.01,2013-06-23 22:34:00,
2013-06-23 18:39:00,84.0,68.6,29.86,SSW,202,0.0,0.0,60,0.00,,,0.01,VWS V14.01,2013-06-23 22:39:00,
2013-06-23 18:44:00,83.0,67.2,29.86,South,180,0.0,0.0,59,0.00,,,0.01,VWS V14.01,2013-06-23 22:44:00,
2013-06-23 18:49:00,83.0,67.7,29.86,SSW,202,0.0,0.0,60,0.00,,,0.01,VWS V14.01,2013-06-23 22:49:00,
2013-06-23 18:54:00,83.0,67.2,29.86,SSW,202,0.0,0.0,59,0.00,,,0.01,VWS V14.01,2013-06-23 22:54:00,
2013-06-23 18:59:00,83.0,67.2,29.85,South,180,0.0,0.0,59,0.00,,,0.01,VWS V14.01,2013-06-23 22:59:00,
2013-06-23 19:04:00,82.0,66.3,29.85,South,180,0.0,5.0,59,0.00,,,0.01,VWS V14.01,2013-06-23 23:04:00,
2013-06-23 19:09:00,82.0,66.3,29.85,SW,225,0.0,2.0,59,0.00,,,0.01,VWS V14.01,2013-06-23 23:09:00,
2013-06-23 19:14:00,82.0,65.8,29.85,SE,135,0.0,3.0,58,0.00,,,0.01,VWS V14.01,2013-06-23 23:14:00,
2013-06-23 19:19:00,82.0,66.3,29.86,SSW,202,1.0,1.0,59,0.00,,,0.01,VWS V14.01,2013-06-23 23:19:00,
2013-06-23 19:24:00,81.0,65.3,29.86,South,180,0.0,0.0,59,0.00,,,0.01,VWS V14.01,2013-06-23 23:24:00,
2013-06-23 19:29:00,81.0,65.8,29.87,SSW,202,0.0,0.0,60,0.00,,,0.01,VWS V14.01,2013-06-23 23:29:00,
2013-06-23 19:34:00,81.0,65.8,29.87,SW,225,0.0,0.0,60,0.00,,,0.01,VWS V14.01,2013-06-23 23:34:00,
2013-06-23 19:39:00,81.0,66.3,29.87,South,180,0.0,0.0,61,0.00,,,0.01,VWS V14.01,2013-06-23 23:39:00,
2013-06-23 19:44:00,81.0,66.3,29.87,SSW,202,0.0,0.0,61,0.00,,,0.01,VWS V14.01,2013-06-23 23:44:00,
2013-06-23 19:49:00,80.0,65.4,29.87,SSW,202,0.0,3.0,61,0.00,,,0.01,VWS V14.01,2013-06-23 23:49:00,
2013-06-23 19:54:00,80.0,65.4,29.87,South,180,0.0,0.0,61,0.00,,,0.01,VWS V14.01,2013-06-23 23:54:00,
2013-06-23 19:59:00,80.0,65.8,29.88,South,180,0.0,0.0,62,0.00,,,0.01,VWS V14.01,2013-06-23 23:59:00,
2013-06-23 20:04:00,80.0,65.8,29.88,South,180,0.0,0.0,62,0.00,,,0.01,VWS V14.01,2013-06-24 00:04:00,
2013-06-23 20:09:00,79.0,65.3,29.89,SSE,157,0.0,0.0,63,0.00,,,0.01,VWS V14.01,2013-06-24 00:09:00,
2013-06-23 20:14:00,79.0,65.8,29.89,South,180,0.0,0.0,64,0.00,,,0.01,VWS V14.01,2013-06-24 00:14:00,
2013-06-23 20:19:00,79.0,65.8,29.89,ESE,112,0.0,0.0,64,0.00,,,0.01,VWS V14.01,2013-06-24 00:19:00,
2013-06-23 20:24:00,79.0,65.8,29.89,South,180,0.0,0.0,64,0.00,,,0.01,VWS V14.01,2013-06-24 00:24:00,
2013-06-23 20:29:00,78.0,65.7,29.89,ESE,112,0.0,0.0,66,0.00,,,0.01,VWS V14.01,2013-06-24 00:29:00,
2013-06-23 20:34:00,78.0,65.7,29.89,South,180,0.0,0.0,66,0.00,,,0.01,VWS V14.01,2013-06-24 00:34:00,
2013-06-23 20:39:00,78.0,65.7,29.89,SSW,202,0.0,0.0,66,0.00,,,0.01,VWS V14.01,2013-06-24 00:39:00,
2013-06-23 20:44:00,78.0,66.2,29.89,SE,135,0.0,0.0,67,0.00,,,0.01,VWS V14.01,2013-06-24 00:44:00,
2013-06-23 20:49:00,78.0,66.2,29.90,South,180,0.0,0.0,67,0.00,,,0.01,VWS V14.01,2013-06-24 00:49:00,
2013-06-23 20:54:00,77.0,65.6,29.90,South,180,0.0,0.0,68,0.00,,,0.01,VWS V14.01,2013-06-24 00:54:00,
2013-06-23 20:59:00,77.0,66.1,29.91,South,180,0.0,0.0,69,0.00,,,0.01,VWS V14.01,2013-06-24 00:59:00,
2013-06-23 21:04:00,77.0,66.1,29.91,South,180,0.0,0.0,69,0.00,,,0.01,VWS V14.01,2013-06-24 01:04:00,
2013-06-23 21:09:00,77.0,66.5,29.92,SW,225,0.0,0.0,70,0.00,,,0.01,VWS V14.01,2013-06-24 01:09:00,
2013-06-23 21:14:00,77.0,66.9,29.92,SW,225,0.0,0.0,71,0.00,,,0.01,VWS V14.01,2013-06-24 01:14:00,
2013-06-23 21:19:00,77.0,66.9,29.92,SW,225,0.0,0.0,71,0.00,,,0.01,VWS V14.01,2013-06-24 01:19:00,
2013-06-23 21:20:00,77.0,67.3,29.92,SW,225,0.0,0.0,72,0.00,,,0.01,VWS V14.01,2013-06-24 01:20:00,
2013-06-23 21:25:00,76.0,66.3,29.92,SW,225,0.0,0.0,72,0.00,,,0.01,VWS V14.01,2013-06-24 01:25:00,
2013-06-23 21:30:00,76.0,66.7,29.92,SSW,202,0.0,0.0,73,0.00,,,0.01,VWS V14.01,2013-06-24 01:30:00,
2013-06-23 21:35:00,76.0,67.1,29.92,SSW,202,0.0,0.0,74,0.00,,,0.01,VWS V14.01,2013-06-24 01:35:00,
2013-06-23 21:40:00,76.0,67.1,29.93,SSW,202,0.0,0.0,74,0.00,,,0.01,VWS V14.01,2013-06-24 01:40:00,
2013-06-23 21:45:00,76.0,67.1,29.93,SSW,202,0.0,0.0,74,0.00,,,0.01,VWS V14.01,2013-06-24 01:45:00,
2013-06-23 21:50:00,76.0,67.1,29.94,SSW,202,0.0,0.0,74,0.00,,,0.01,VWS V14.01,2013-06-24 01:50:00,
2013-06-23 21:55:00,76.0,67.1,29.94,SSW,202,0.0,0.0,74,0.00,,,0.01,VWS V14.01,2013-06-24 01:55:00,
2013-06-23 22:00:00,76.0,67.5,29.94,SSW,202,0.0,0.0,75,0.00,,,0.01,VWS V14.01,2013-06-24 02:00:00,
2013-06-23 22:05:00,76.0,67.5,29.94,SSW,202,0.0,0.0,75,0.00,,,0.01,VWS V14.01,2013-06-24 02:05:00,
2013-06-23 22:10:00,76.0,67.5,29.94,SE,135,0.0,1.0,75,0.00,,,0.01,VWS V14.01,2013-06-24 02:10:00,
2013-06-23 22:15:00,76.0,67.9,29.94,South,180,0.0,0.0,76,0.00,,,0.01,VWS V14.01,2013-06-24 02:15:00,
2013-06-23 22:20:00,76.0,67.9,29.94,South,180,0.0,0.0,76,0.00,,,0.01,VWS V14.01,2013-06-24 02:20:00,
2013-06-23 22:25:00,76.0,67.9,29.94,South,180,0.0,0.0,76,0.00,,,0.01,VWS V14.01,2013-06-24 02:25:00,
2013-06-23 22:30:00,76.0,67.9,29.94,South,180,0.0,0.0,76,0.00,,,0.01,VWS V14.01,2013-06-24 02:30:00,
2013-06-23 22:35:00,75.0,66.9,29.94,South,180,0.0,0.0,76,0.00,,,0.01,VWS V14.01,2013-06-24 02:35:00,
2013-06-23 22:40:00,75.0,66.9,29.94,South,180,0.0,0.0,76,0.00,,,0.01,VWS V14.01,2013-06-24 02:40:00,
2013-06-23 22:45:00,75.0,67.3,29.94,South,180,0.0,0.0,77,0.00,,,0.01,VWS V14.01,2013-06-24 02:45:00,
2013-06-23 22:50:00,75.0,67.3,29.94,South,180,0.0,0.0,77,0.00,,,0.01,VWS V14.01,2013-06-24 02:50:00,
2013-06-23 22:55:00,75.0,67.3,29.94,South,180,0.0,0.0,77,0.00,,,0.01,VWS V14.01,2013-06-24 02:55:00,
2013-06-23 23:00:00,75.0,67.7,29.93,SSW,202,0.0,0.0,78,0.00,,,0.01,VWS V14.01,2013-06-24 03:00:00,
2013-06-23 23:05:00,75.0,67.7,29.93,South,180,0.0,0.0,78,0.00,,,0.01,VWS V14.01,2013-06-24 03:05:00,
2013-06-23 23:10:00,75.0,67.7,29.93,SW,225,0.0,0.0,78,0.00,,,0.01,VWS V14.01,2013-06-24 03:10:00,
2013-06-23 23:15:00,75.0,67.7,29.93,SSW,202,0.0,0.0,78,0.00,,,0.01,VWS V14.01,2013-06-24 03:15:00,
2013-06-23 23:20:00,75.0,67.7,29.93,SSW,202,0.0,0.0,78,0.00,,,0.01,VWS V14.01,2013-06-24 03:20:00,
2013-06-23 23:25:00,75.0,67.7,29.93,SSW,202,0.0,0.0,78,0.00,,,0.01,VWS V14.01,2013-06-24 03:25:00,
2013-06-23 23:30:00,74.0,67.1,29.92,South,180,0.0,0.0,79,0.00,,,0.01,VWS V14.01,2013-06-24 03:30:00,
2013-06-23 23:35:00,74.0,67.1,29.92,South,180,0.0,0.0,79,0.00,,,0.01,VWS V14.01,2013-06-24 03:35:00,
2013-06-23 23:40:00,74.0,67.1,29.93,South,180,0.0,0.0,79,0.00,,,0.01,VWS V14.01,2013-06-24 03:40:00,
2013-06-23 23:45:00,74.0,67.4,29.93,SE,135,0.0,0.0,80,0.00,,,0.01,VWS V14.01,2013-06-24 03:45:00,
2013-06-23 23:50:00,74.0,67.4,29.92,SSW,202,0.0,0.0,80,0.00,,,0.01,VWS V14.01,2013-06-24 03:50:00,
2013-06-23 23:55:00,74.0,67.4,29.92,SW,225,0.0,0.0,80,0.00,,,0.01,VWS V14.01,2013-06-24 03:55:00,